This demonstration page uses our WeatherBlox Daily Observations layout. Learn more.

Left ArrowRight Arrow

30.00354, -91.81873

Hourly Observations for August 16, 2022

Temp ( °F °C ) Dew Point ( °F °C ) Humidity (%) Winds ( mph kmh ) Pressure ( in mb ) Visibility ( mi km ) Precip ( " mm )
12:53 am 00:53 Clear 77 25 74 23.3 90 90 WSW 3 6 29.93 1014 10 16 0.00 0.00
1:53 am 01:53 Clear with Light Rain 78 25.6 75 23.9 90 90 Calm 29.93 1014 10 16 0.01 0.13
2:53 am 02:53 Clear 78 25.6 74 23.3 87 87 Calm 29.93 1014 10 16 0.01 0.13
3:53 am 03:53 Clear 77 25 74 23.3 90 90 WSW 3 6 29.93 1014 10 16 0.00 0.00
4:53 am 04:53 Clear 76 24.4 73 22.8 91 91 Calm 29.93 1014 10 16 0.00 0.00
5:53 am 05:53 Clear 76 24.4 74 23.3 94 94 Calm 29.93 1014 10 16 0.00 0.00
6:53 am 06:53 Sunny with Mist and Fog 76 24.4 74 23.3 94 94 Calm 29.94 1014 3 5 0.00 0.00
7:53 am 07:53 Sunny 80 26.7 76 24.4 87 87 Calm 29.95 1014 10 16 0.00 0.00
8:53 am 08:53 Sunny 84 28.9 77 25 80 80 WNW 5 7 29.96 1015 10 16 0.00 0.00
9:53 am 09:53 Partly Cloudy 86 30 76 24.4 72 72 W 6 9 29.98 1015 10 16 0.00 0.00
10:53 am 10:53 Mostly Sunny 88 31.1 76 24.4 68 68 W 5 7 29.98 1015 10 16 0.00 0.00
11:53 am 11:53 Mostly Cloudy 91 32.8 75 23.9 60 60 WNW 6 9 29.98 1015 10 16 0.00 0.00
12:53 pm 12:53 Partly Cloudy 91 32.8 75 23.9 60 60 WSW 5 7 29.97 1015 10 16 0.00 0.00
1:53 pm 13:53 Mostly Sunny 93 33.9 72 22.2 51 51 WSW 6 9 29.96 1014 10 16 0.00 0.00
2:53 pm 14:53 Mostly Sunny 92 33.3 74 23.3 56 56 undefined N/A 29.94 1014 10 16 0.00 0.00
3:53 pm 15:53 Partly Cloudy 93 33.9 75 23.9 56 56 SSW 9 15 29.92 1013 10 16 0.00 0.00
4:53 pm 16:53 Sunny 92 33.3 74 23.3 56 56 S 6 9 29.90 1013 10 16 0.00 0.00
5:53 pm 17:53 Sunny 91 32.8 75 23.9 60 60 SSW 7 11 29.89 1012 10 16 0.00 0.00
6:53 pm 18:53 Mostly Sunny 89 31.7 74 23.3 61 61 WSW 7 11 29.89 1012 10 16 0.00 0.00
7:53 pm 19:53 Clear 85 29.4 74 23.3 70 70 WSW 3 6 29.92 1013 10 16 0.00 0.00
8:53 pm 20:53 Clear 82 27.8 74 23.3 77 77 SW 5 7 29.93 1014 10 16 0.00 0.00
9:53 pm 21:53 Clear 80 26.7 74 23.3 82 82 SW 3 6 29.94 1014 10 16 0.00 0.00
10:53 pm 22:53 Clear 80 26.7 75 23.9 85 85 Calm 29.94 1014 10 16 0.00 0.00
11:53 pm 23:53 Clear 79 26.1 75 23.9 88 88 Calm 29.94 1014 10 16 0.00 0.00

Powered by AerisWeather